CZ-3B DEB, 40850

Orbit data source: Space-Track

CZ-3B DEB, 40850 is space debris in HEO originally from a launch on Mon, 19 Dec 2011 UTC launched from the Xichang Space Center, China (XSC). Debris objects in space refer to the collection of defunct objects orbiting the Earth. Examples of debris include non-operational satellites, rocket bodies, and fragments generated from explosions, collisions, or faulty payload assembly.

Loading next visibility...
Identifier
40850, 2011-077AF
Orbit
HEO
Country
Flag of CNCN / PRC
Related business
Manufacturer
CALT
Mission
Spacecraft
Bus & Motor
Unknown
Mass
Unknown
Launch date (UTC)
2011-12-19 (14 years ago)
Launch vehicle
Unknown
Launch site
Xichang Space Center, China (XSC)
Object type
Payload
Rocket body
Debris
Shape & HBR
Unknown shape, 0.1 m
Radar Cross Section
Medium (>0.1 m² and <1 m²)

Expand to show TLE details & history
Last TLE update: 1 day ago

TLE from 1 day ago
0 CZ-3B DEB
1 40850U 11077AF  25353.00402628  .00000096  00000-0  28058-2 0  9993
2 40850  25.6111 294.6614 7474758 169.5381 226.8082  1.92912022 75819
Epoch: 2025-12-19T00:05Z
TLE epoch observation values (Epoch: 2025-12-19T00:05:47.870Z)
Latitude
0.00007°
Longitude
-154.67216°
Altitude
39,004.273 km
Speed
1.716 km/s
True Right ascension
19h 38m 30s
True Declination
0° 00' 00"
Sunlit
Object was in daylight at epoch
Visualization orbit readout
Latitude
Unknown
Longitude
Unknown
Altitude
Unknown
Speed
Unknown
Apparent Right ascension
Unknown
Apparent Declination
Unknown
Sunlit
N/A
Visualization observer readout
Local Sidereal Time
00:16:11
Azimuth
Unknown
Elevation
Unknown
Doppler factor
Unknown
Orbital elements
Apogee altitude
41,261.702 km
Perigee altitude
506.2 km
Semi-major axis
27,262.088 km
Eccentricity
0.74748
Inclination
25.6111°
RAAN
294.6614°
Arg. of periapsis
169.5381°
True anomaly
190.51663°
Mean anomaly
226.8082°
Eccentric anomaly
207.21921°
Mean motion
0.48217 °/min
Orbital period
746.62 mins
BSTAR
0.0028058
Loading maneuver chart data...
Computing Atmospheric mass density...
Loading historical data...
Loading historical data...
Loading historical data...
Loading historical data...
Loading historical data...
Loading historical data...
Loading historical data...

Documentation

Showing up to 5 results
|